Hatteras, NC

8:31 AM EDT on October 20, 2019 (GMT -0400)
Mitchell

Weather History for KHSE - August, 2019

Change the Weather History Date:

Monday, August 12, 2019

  Actual Average Record
Temperature  
Mean Temperature 82 °F 79 °F  
Max Temperature 90 °F 85 °F 91 °F (1994)
Min Temperature 75 °F 73 °F 60 °F (1974)
Degree Days  
Heating Degree Days 0 0  
Month to date heating degree days 0 0  
Since 1 June heating degree days 0 3  
Since 1 July heating degree days 0 0  
Cooling Degree Days 18 14  
Month to date cooling degree days 199 168  
Year to date cooling degree days 1499 1056  
Since 1 June cooling degree days 1117 913  
Growing Degree Days 32 (Base 50)    
Moisture  
Dew Point 69 °F    
Average Humidity 66    
Maximum Humidity 79    
Minimum Humidity 50    
Precipitation  
Precipitation 0.00 in 0.21 in 3.45 in (2014)
Month to date precipitation 2.59 2.48  
Year to date precipitation 34.31 32.74  
Snow  
Snow 0.00 in - - ()
Month to date snowfall 0.0  
Since 1 July snowfall 0.0  
Snow Depth 0.00 in    
Sea Level Pressure  
Sea Level Pressure 30.00 in    
Wind  
Wind Speed 6 mph ()    
Max Wind Speed 13 mph    
Max Gust Speed 19 mph    
Visibility 10.0 miles    
Events      
T = Trace of Precipitation, MM = Missing Value Source: Averaged Metar Reports

Daily Weather History Graph

Daily Weather History Graph

Search for Another Location

Airport or City:

Astronomy

Aug. 12, 2019 Rise Set
Actual Time 6:19 AM EDT 7:54 PM EDT
Civil Twilight 5:52 AM EDT 8:21 PM EDT
Nautical Twilight 5:19 AM EDT 8:54 PM EDT
Astronomical Twilight 4:45 AM EDT 9:28 PM EDT
Moon 6:17 PM EDT (8/12) 3:32 AM EDT (8/12)
Length of Visible Light 14h 29m
Length of Day
13h 35m
Waxing Gibbous, 93% of the Moon is Illuminated
Aug 12
Waxing Gibbous
Aug 15
Full
Aug 23
Last Quarter
Aug 30
New
Sep 5
First Quarter

Hourly Weather History & Observations

Time (EDT) Temp. Heat Index Dew Point Humidity Pressure Visibility Wind Dir Wind Speed Gust Speed Precip Events Conditions
12:51 AM 75.9 °F - 68.0 °F 76% 30.01 in 10.0 mi ENE 4.6 mph - N/A   Clear
1:51 AM 75.9 °F - 68.0 °F 76% 30.01 in 10.0 mi ENE 4.6 mph - N/A   Clear
2:51 AM 77.0 °F - 68.0 °F 74% 30.00 in 10.0 mi ENE 4.6 mph - N/A   Mostly Cloudy
3:51 AM 75.9 °F - 68.0 °F 76% 29.99 in 10.0 mi ENE 4.6 mph - N/A   Partly Cloudy
4:51 AM 75.0 °F - 68.0 °F 79% 29.99 in 10.0 mi ENE 4.6 mph - N/A   Clear
5:51 AM 75.9 °F - 68.0 °F 76% 29.99 in 10.0 mi ENE 5.8 mph - N/A   Clear
6:51 AM 75.9 °F - 68.0 °F 76% 30.00 in 10.0 mi ENE 4.6 mph - N/A   Clear
7:51 AM 80.1 °F 83.2 °F 70.0 °F 71% 30.01 in 10.0 mi ENE 5.8 mph - N/A   Clear
8:51 AM 84.0 °F 87.8 °F 69.1 °F 61% 30.02 in 10.0 mi Variable 5.8 mph - N/A   Clear
9:51 AM 86.0 °F 90.1 °F 69.1 °F 57% 30.02 in 10.0 mi ENE 8.1 mph 17.3 mph N/A   Partly Cloudy
10:51 AM 87.1 °F 91.3 °F 69.1 °F 55% 30.03 in 10.0 mi ESE 11.5 mph - N/A   Clear
11:51 AM 88.0 °F 91.4 °F 68.0 °F 51% 30.03 in 10.0 mi ESE 10.4 mph - N/A   Partly Cloudy
12:51 PM 89.1 °F 93.7 °F 69.1 °F 52% 30.02 in 10.0 mi ESE 11.5 mph - N/A   Mostly Cloudy
1:51 PM 87.1 °F 90.6 °F 68.0 °F 53% 30.02 in 10.0 mi East 8.1 mph - N/A   Mostly Cloudy
2:51 PM 90.0 °F 94.5 °F 69.1 °F 50% 30.00 in 10.0 mi ESE 10.4 mph - N/A   Mostly Cloudy
3:51 PM 90.0 °F 95.4 °F 70.0 °F 52% 30.00 in 10.0 mi ESE 9.2 mph - N/A   Scattered Clouds
4:51 PM 88.0 °F 92.9 °F 70.0 °F 55% 29.98 in 10.0 mi ESE 9.2 mph - N/A   Partly Cloudy
5:51 PM 86.0 °F 90.7 °F 70.0 °F 59% 29.97 in 10.0 mi ESE 8.1 mph - N/A   Clear
6:51 PM 84.0 °F 88.4 °F 70.0 °F 63% 29.97 in 10.0 mi ESE 6.9 mph - N/A   Clear
7:51 PM 81.0 °F 84.4 °F 70.0 °F 69% 29.97 in 10.0 mi ESE 5.8 mph - N/A   Clear
8:51 PM 78.1 °F - 70.0 °F 76% 29.97 in 10.0 mi East 3.5 mph - N/A   Clear
9:51 PM 79.0 °F - 71.1 °F 77% 29.97 in 10.0 mi SE 4.6 mph - N/A   Clear
10:51 PM 81.0 °F 84.9 °F 71.1 °F 72% 29.97 in 10.0 mi SE 5.8 mph - N/A   Clear
11:51 PM 81.0 °F 84.9 °F 71.1 °F 72% 29.98 in 10.0 mi SSE 5.8 mph - N/A   Clear